Dewpoint
71 72 73 70 71 71 70 70 71 71 73 72 72 71 71 71 72 74 75 73 72 73 73 72 71 74 67 64 66 64 63 62 61 62 64 73 74 72 71 73 71 72 65
72 72 72 70 70 72 70 70 71 72 72 72 73 73 73 72 73 73 72 70 71 71 70 70 70 66 74 75 65 73 68 70 65 70 69 65 71 74 75 77 69 65 66
71 73 72 71 71 72 73 70 70 71 72 71 72 73 72 73 73 73 74 73 71 70 70 70 69 70 73 69 72 68 65 64 67 64 64 64 65 65 69 74 74 72 66
72 70 70 70 71 72 72 72 72 73 72 71 71 72 71 71 73 72 72 72 71 70 70 70 70 70 72 73 69 75 71 69 68 65 63 63 63 68 65 65 63 63 63
70 70 70 70 71 71 71 72 73 74 72 71 71 72 71 70 71 71 72 71 72 72 71 71 71 70 70 70 69 75 75 71 67 65 62 61 60 67 68 64 65 64 68
70 70 70 71 72 72 71 72 72 73 73 72 72 73 72 66 61 62 68 74 72 72 71 72 73 71 70 68 68 68 70 73 73 69 66 66 73 70 68 68 68 65 65
70 70 70 70 70 70 70 71 70 71 73 71 71 71 67 62 55 57 63 68 72 74 75 75 71 69 71 72 68 67 67 66 67 74 72 73 74 75 76 75 73 71 69
66 66 66 66 67 67 68 67 66 68 70 70 70 68 63 53 52 54 57 67 70 72 73 73 74 72 63 64 71 72 71 71 73 72 74 73 75 77 77 76 76 75 73
61 61 62 63 64 64 64 67 67 69 68 68 69 66 62 55 50 52 59 68 72 72 71 68 71 68 54 55 68 71 73 74 67 65 65 64 63 63 67 71 69 66 65
54 54 59 58 58 60 62 63 64 66 66 66 64 63 57 57 49 49 53 56 64 62 71 62 53 52 51 51 58 66 68 69 69 68 66 68 68 70 65 72 75 72 73
50 53 54 55 55 56 58 58 59 63 64 65 63 62 57 54 49 48 48 53 48 52 54 53 55 51 48 49 50 58 62 56 58 60 61 62 64 65 63 73 76 75 69
52 51 54 53 49 52 56 57 59 60 60 61 61 59 56 56 48 47 47 46 48 49 51 49 49 48 48 48 51 52 52 53 54 59 60 60 61 61 62 66 71 70 67
51 52 50 53 54 53 57 55 50 55 55 53 52 51 51 50 50 47 47 47 48 44 48 46 47 46 46 50 53 53 54 57 55 56 57 55 54 55 63 63 66 71 73
54 51 52 53 54 55 52 48 45 44 45 48 45 45 45 46 45 41 39 41 47 45 48 45 48 48 49 50 51 51 50 51 51 51 53 53 53 53 52 54 54 55 55
50 49 49 47 48 48 48 45 44 45 42 42 45 44 43 43 39 38 37 37 39 41 43 47 44 45 44 45 45 46 47 47 48 49 50 49 49 50 50 53 53 55 55
46 44 42 40 43 42 43 41 41 41 41 39 39 39 40 38 38 39 38 38 39 41 44 43 43 43 44 44 44 44 44 47 47 47 45 45 46 46 46 47 48 48 50
46 45 41 38 38 40 41 41 39 36 40 39 38 38 38 37 38 37 37 38 39 41 42 41 42 42 42 42 41 41 41 45 51 44 44 44 44 45 46 45 45 47 47
46 44 41 36 37 37 37 38 37 39 39 39 37 40 37 37 37 37 37 38 40 40 37 38 39 39 39 40 40 40 41 41 41 41 43 42 42 43 43 43 44 47 46
44 38 37 36 36 36 36 36 34 35 37 37 39 37 38 39 39 38 38 40 37 36 36 37 38 38 39 40 40 41 42 39 39 39 39 39 39 40 41 41 43 43 44
44 41 41 35 35 35 34 33 32 34 34 35 35 35 36 39 39 39 41 40 38 36 37 38 38 39 40 41 40 40 39 38 38 37 37 38 38 39 38 38 38 39 40
39 38 42 34 34 32 33 33 32 32 31 32 33 33 34 37 36 37 37 37 37 37 38 38 39 39 39 39 39 38 37 36 37 37 37 37 37 36 37 37 37 37 38
37 37 34 35 35 35 34 34 34 33 32 32 30 35 37 35 34 35 37 37 38 39 37 39 37 37 37 38 38 36 35 35 35 36 35 35 35 35 35 35 35 35 35
36 37 36 35 36 39 36 35 34 34 34 34 33 32 32 32 34 34 36 36 37 37 38 37 37 35 36 37 36 36 34 34 35 36 35 35 35 35 35 35 35 35 35
38 36 37 37 37 36 36 36 36 36 35 35 35 33 33 34 33 33 35 35 37 36 36 36 36 36 37 37 36 35 35 36 36 35 36 36 36 36 35 35 36 36 37
41 38 38 38 38 38 37 35 37 37 36 35 34 34 34 34 34 33 33 34 34 34 34 34 35 35 36 37 37 36 35 33 36 35 36 36 36 37 36 36 36 36 36
46 44 42 39 39 39 38 38 38 38 38 37 36 36 36 36 36 35 35 34 33 32 33 33 34 36 37 35 36 35 32 33 35 33 34 35 35 36 36 36 36 36 36
Lifted_Index
-4 -4 -4 -4 -4 -4 -3 -3 -3 -3 -4 -4 -4 -4 -4 -4 -4 -4 -5 -5 -5 -4 -4 -4 -4 -4 -4 -4 -3 -3 -3 -3 -3 -4 -4 -4 -5 -5 -6 -6 -6 -5 -5
-3 -3 -3 -3 -3 -4 -3 -3 -3 -3 -4 -4 -4 -4 -4 -4 -4 -5 -5 -4 -4 -4 -4 -4 -4 -4 -4 -4 -4 -3 -3 -3 -3 -3 -3 -3 -3 -4 -5 -6 -6 -5 -4
-2 -2 -3 -3 -3 -3 -3 -3 -3 -3 -4 -4 -4 -4 -4 -4 -4 -5 -5 -5 -4 -4 -4 -4 -3 -4 -4 -4 -4 -3 -3 -3 -3 -2 -2 -2 -2 -2 -3 -4 -5 -4 -4
-2 -2 -2 -2 -2 -2 -2 -3 -3 -3 -4 -4 -4 -4 -4 -4 -4 -4 -5 -5 -4 -4 -4 -4 -4 -4 -4 -4 -4 -4 -4 -3 -3 -2 -2 -2 -2 -2 -2 -3 -3 -3 -3
-3 -2 -2 -2 -2 -1 -2 -2 -3 -3 -3 -4 -4 -4 -4 -4 -4 -4 -4 -5 -5 -4 -4 -4 -4 -4 -4 -4 -4 -4 -4 -4 -4 -3 -2 -2 -2 -3 -3 -3 -3 -3 -3
-3 -4 -3 -3 -2 -2 -2 -2 -2 -2 -3 -3 -3 -4 -4 -3 -3 -3 -3 -4 -4 -5 -5 -5 -5 -4 -4 -4 -3 -3 -3 -4 -4 -3 -3 -3 -4 -4 -4 -4 -3 -3 -3
-4 -4 -4 -3 -2 -2 -2 -1 -1 -1 -2 -2 -3 -3 -2 -2 -2 -2 -2 -3 -4 -5 -5 -5 -5 -4 -4 -4 -4 -3 -3 -3 -4 -4 -4 -4 -5 -5 -5 -5 -4 -4 -4
-3 -3 -3 -2 -2 -1 -1 -0 -0 -1 -1 -1 -1 -1 -1 -0 -0 -0 -1 -2 -3 -4 -4 -4 -4 -4 -3 -3 -3 -4 -4 -4 -4 -4 -4 -5 -5 -5 -5 -5 -5 -4 -4
-3 -3 -2 -2 -1 -1 -0 0 0 -0 -0 -0 -0 1 1 1 1 1 0 -1 -2 -3 -3 -3 -3 -2 -2 -2 -2 -3 -4 -4 -4 -4 -4 -4 -4 -4 -4 -4 -4 -4 -4
-2 -2 -2 -1 -1 -1 -0 0 0 0 0 0 1 1 2 2 2 2 2 1 -0 -1 -1 -1 -0 -0 -0 0 -0 -1 -2 -3 -3 -3 -2 -2 -3 -3 -3 -3 -4 -4 -4
-1 -1 -0 1 1 1 1 1 1 1 1 1 1 2 2 3 3 3 3 3 3 3 2 1 1 2 2 2 2 2 1 0 -0 -1 -1 -1 -2 -2 -2 -3 -4 -3 -3
4 3 4 5 5 4 4 3 3 3 3 2 2 3 3 4 5 5 6 7 7 7 6 5 5 5 5 5 5 5 4 3 2 2 1 1 1 0 -0 -1 -2 -2 -2
8 8 8 9 9 8 7 7 7 6 6 6 5 6 6 7 8 9 10 10 11 11 11 10 10 10 9 9 8 8 7 6 5 4 4 4 4 3 3 2 1 0 -0
9 9 10 10 10 10 9 9 9 9 9 8 8 8 8 9 11 12 13 13 14 14 14 13 12 12 11 10 10 9 9 8 8 7 7 7 6 6 5 5 4 3 2
8 8 9 9 9 9 10 10 10 10 10 10 10 10 10 11 12 14 15 15 15 15 14 12 12 11 11 11 10 10 10 9 9 9 9 8 8 8 8 7 6 6 5
8 8 8 9 9 9 10 11 12 13 13 12 12 12 13 13 14 15 16 16 15 14 12 11 11 11 11 11 12 12 11 11 11 11 11 10 10 10 9 9 9 8 8
7 8 9 9 9 9 10 10 12 13 13 14 14 14 15 15 15 16 15 15 14 12 11 11 11 11 12 12 13 13 13 13 13 13 13 12 12 11 11 11 10 10 10
8 8 9 9 9 9 9 10 10 11 12 12 13 14 15 15 15 15 14 13 12 11 11 11 12 12 13 13 13 14 14 14 14 14 14 14 14 13 13 12 12 11 11
8 8 9 9 9 10 10 10 10 10 10 11 12 13 14 14 14 13 12 11 11 11 11 12 12 13 13 14 14 14 15 15 15 15 15 16 15 15 15 15 14 14 14
8 9 9 10 10 10 10 10 10 10 10 10 11 12 13 13 12 11 11 11 11 11 12 12 13 13 14 14 14 15 15 15 16 16 16 16 16 17 17 17 16 16 16
7 8 9 9 9 10 10 10 10 10 10 10 10 12 13 12 11 11 11 11 12 12 12 12 13 13 14 14 15 15 16 16 16 16 17 17 17 17 17 18 17 17 17
7 7 8 8 8 9 9 9 9 9 9 10 10 11 12 12 11 11 11 11 11 12 12 12 13 13 14 14 15 15 16 16 16 17 17 17 17 17 17 18 18 18 18
6 6 7 7 7 7 8 8 8 8 8 8 8 9 10 10 10 10 10 10 11 11 12 12 12 13 13 14 14 15 15 16 16 17 17 17 17 17 17 17 17 17 17
4 5 5 6 6 6 6 6 6 6 6 6 7 7 8 8 9 9 9 10 10 11 11 11 12 12 12 13 13 14 15 15 16 16 16 16 16 16 16 16 16 16 16
3 4 4 4 4 5 5 5 5 5 5 6 6 6 6 7 7 8 9 9 10 10 11 11 11 12 12 12 13 14 15 15 15 15 15 15 15 14 14 15 15 15 16
3 3 3 3 4 4 4 4 4 4 5 5 5 6 6 6 7 7 8 9 9 10 10 11 11 11 12 12 13 14 15 15 15 15 14 14 14 14 14 14 14 15 15